Location: Potomac
(46.8816°N, 113.5795°W)
Time: 20:07:41
(UTC+00:00)

Max Valier Satellite - Visible Passes

Search period start: 26 June 2022 00:00
Search period end: 06 July 2022 00:00
Orbit: 478 x 490 km, 97.2° (Epoch: 26 June)

Date Brightness Start Highest point End Pass type
(mag) Time Alt. Az. Time Alt. Az. Time Alt. Az.
26 Jun ? 04:13:42 10° SW 04:16:16 18° W 04:18:52 10° NW visible
29 Jun ? 04:35:31 10° WSW 04:36:32 11° W 04:37:34 10° WNW visible
30 Jun ? 04:09:05 10° SW 04:11:50 20° W 04:14:36 10° NW visible
03 Jul ? 04:30:22 10° WSW 04:31:55 12° W 04:33:29 10° WNW visible
